Regional Weather Roundup
Issued by NWS

Home | Current Version | Previous Version | Graphics & Text | Print | Product List | Glossary On
Versions: 1 2 3 4 5 6 7 8 9 10 11 12 13 14 15 16 17 18 19 20 21 22 23 24 25 26 27 28 29 30 31 32 33 34 35 36 37 38 39 40 41 42 43 44 45 46 47 48 49 50
000
ASUS45 KABQ 230001
RWRNM
WEATHER ROUNDUP FOR NEW MEXICO
NATIONAL WEATHER SERVICE ALBUQUERQUE NM
500 PM MST MON DEC 22 2014

NOTE: "FAIR" MEANS FEW OR NO CLOUDS BELOW 12,000 FEET AGL WITH NO
       SIGNIFICANT WEATHER OR OBSTRUCTIONS TO VISION.

      THIS PRODUCT IS RELEASED AS TWO VERSIONS.  ONE VERSION NEAR
      THE TOP OF THE HOUR CONTAINING PRELIMINARY DATA FROM ALBUQUERQUE
      AND OTHER STATIONS.  A FINAL VERSION WITH ADDITIONAL DATA IS
      ISSUED ABOUT 10 MINUTES AFTER THE HOUR.

NMZ501-503-504-510>518-230100-
NORTHWEST PLATEAU/NORTHCENTRAL MOUNTAINS

CITY           SKY/WX    TMP DP  RH WIND       PRES   REMARKS
FARMINGTON     LGT RAIN  45  35  68 W22G35    29.74F
6HR MIN TEMP:  41; 6HR MAX TEMP:  47; 6HR PCP:  0.05;

SANTA FE       PTCLDY    46  20  35 NW28G40   29.68R
6HR MIN TEMP:  46; 6HR MAX TEMP:  53; 6HR PCP: TRACE;

TAOS           CLOUDY    30  27  86 N13       29.72R WCI  20

$$
NMZ402-403-502-505>509-230100-
WESTCENTRAL MOUNTAINS/SOUTHWEST MOUNTAINS

CITY           SKY/WX    TMP DP  RH WIND       PRES   REMARKS
GALLUP         MOCLDY    41  34  76 NW12G24   29.89R
6HR MIN TEMP:  41; 6HR MAX TEMP:  53; 6HR PCP: TRACE;

GRANTS         LGT RAIN  41  36  81 NW23G39   29.84R
SILVER CITY    CLEAR     52  32  46 NW20      29.84S

$$
NMZ407-409-411-412-230100-
SOUTHERN DESERTS

CITY           SKY/WX    TMP DP  RH WIND       PRES   REMARKS
DEMING         CLEAR     58  35  42 W23G33    29.76R
6HR MIN TEMP:  57; 6HR MAX TEMP:  62;

HOLLOMAN AFB   PTCLDY    62  33  34 S6        29.68S
ALAMOGORDO     PTCLDY    59  32  36 S6        29.70S
T OR C         CLEAR     62  26  25 NW20G37   29.72S
6HR MIN TEMP:  61; 6HR MAX TEMP:  68;


$$
NMZ519>523-230100-
CENTRAL VALLEYS/CENTRAL HIGHLANDS

CITY           SKY/WX    TMP DP  RH WIND       PRES   REMARKS
ALBUQUERQUE    CLOUDY    45  36  70 NW20G26   29.73F
6HR MIN TEMP:  45; 6HR MAX TEMP:  61; 6HR PCP:  0.01;

DOUBLE EAGLE   MOCLDY    41  36  81 NW16G22   29.75F
MORIARTY ARPT  DRIZZLE   44  31  61 NW25G41   29.72R
6HR MIN TEMP:  41; 6HR MAX TEMP:  57;

CLINES CORNERS NOT AVBL
BELEN          MOCLDY    47  37  67 NW14      29.78R
6HR MIN TEMP:  47; 6HR MAX TEMP:  63;

SOCORRO        NOT AVBL

$$
NMZ524>526-539-540-230100-
SOUTHCENTRAL MOUNTAINS

CITY           SKY/WX    TMP DP  RH WIND       PRES   REMARKS
RUIDOSO        NOT AVBL

$$
NMZ527>531-230100-
NORTHEAST HIGHLANDS/NORTHEAST PLAINS

CITY           SKY/WX    TMP DP  RH WIND       PRES   REMARKS
LAS VEGAS      LGT SNOW  29  26  89 E17G28    29.70R FOG     WCI  17
6HR MIN TEMP:  29; 6HR MAX TEMP:  55; 6HR PCP: TRACE;

RATON          CLOUDY    27  25  92 CALM      29.69S
6HR MIN TEMP:  27; 6HR MAX TEMP:  32; 6HR PCP:  0.10;

CLAYTON        CLOUDY    32  30  92 SW3       29.71F
6HR MIN TEMP:  32; 6HR MAX TEMP:  40; 6HR PCP:  0.05;


$$
NMZ532>537-230100-
EASTCENTRAL PLAINS

CITY           SKY/WX    TMP DP  RH WIND       PRES   REMARKS
TUCUMCARI      LGT RAIN  36  33  89 NE17      29.73R WCI  26
6HR MIN TEMP:  36; 6HR MAX TEMP:  50; 6HR PCP:  0.01;

CANNON AFB     CLOUDY    46  27  49 NE15      29.70R
6HR MIN TEMP:  46; 6HR MAX TEMP:  51;

CLOVIS AIRPORT CLOUDY    45  25  45 NE17      29.68S

$$
NMZ028-029-538-230100-
SOUTHEAST PLAINS

CITY           SKY/WX    TMP DP  RH WIND       PRES   REMARKS
ROSWELL        CLOUDY    65  28  24 W10       29.58F
6HR MIN TEMP:  65; 6HR MAX TEMP:  72;

ARTESIA        CLOUDY    63  32  31 SW14      29.60F
CARLSBAD       CLOUDY    66  31  27 W20G26    29.60R
6HR MIN TEMP:  66; 6HR MAX TEMP:  72;

HOBBS          PTCLDY    54  32  43 NE9       29.64R


$$


USA.gov is the U.S. government's official web portal to all federal, state and local government web resources and services.